Lid_Strength_Index
4 4 4 4 4 3 3 3 2 2 1 1 1 1 1 1 1 1 2 2 2 2 2 2 2 2 2 1 2 2 2 3 5 5 5 4 4 4 3 3 2 2 2
4 5 5 5 4 4 4 3 3 3 2 1 1 1 1 1 1 1 2 1 2 2 2 2 2 1 3 2 2 2 3 4 5 5 5 5 5 4 3 3 2 1 3
5 5 5 4 4 4 3 3 3 3 2 1 1 1 1 1 1 1 1 1 2 1 2 2 2 2 2 2 2 2 4 4 5 5 5 5 5 4 5 4 3 4 3
5 4 5 4 4 4 3 3 3 2 2 3 3 1 1 1 1 1 1 2 1 1 1 1 1 2 2 2 2 2 4 4 5 5 5 6 6 5 5 5 5 2 4
5 6 6 6 5 4 2 2 2 2 1 1 1 2 2 2 1 2 2 2 2 2 1 1 1 2 4 3 2 4 4 5 5 6 6 7 7 5 6 5 5 4 4
5 6 5 4 3 3 3 3 2 2 2 2 2 2 2 1 4 5 4 2 2 2 2 2 1 3 4 7 7 7 4 5 5 6 6 6 6 6 6 5 5 4 4
5 5 4 4 4 4 4 4 4 4 3 3 2 2 2 2 5 6 5 3 2 2 2 2 2 1 4 3 8 9 8 8 6 4 5 5 6 5 5 5 5 5 5
5 5 4 4 4 4 4 5 5 5 4 4 4 3 2 1 4 6 6 4 3 2 1 2 2 2 2 3 4 4 4 5 5 4 3 4 4 4 4 4 4 4 4
5 5 4 4 4 4 4 4 5 5 5 4 3 3 3 2 4 6 6 3 2 2 1 1 1 2 7 11 3 4 5 6 9 9 8 7 8 8 5 3 4 5 5
6 5 4 4 4 4 4 4 5 4 3 3 3 3 2 2 4 7 6 3 4 2 2 2 8 4 11 12 3 5 5 6 5 5 5 6 7 8 8 3 3 5 6
4 4 4 3 3 3 3 4 4 5 4 4 3 2 2 2 2 6 9 4 2 3 2 2 3 10 12 12 8 4 5 5 7 4 5 4 4 4 4 3 3 3 5
4 4 4 4 4 3 4 4 4 4 4 4 3 3 2 1 5 7 9 9 6 2 3 2 4 12 12 12 9 10 12 8 4 5 5 5 5 4 4 3 3 3 3
5 5 4 4 4 4 4 5 5 4 4 3 3 3 3 2 3 7 7 8 10 8 2 4 9 12 13 11 10 12 10 4 4 5 5 5 4 4 4 4 3 3 3
5 5 5 5 5 4 4 4 4 4 4 4 4 4 3 3 3 3 3 1 7 8 9 9 9 8 9 7 9 9 4 3 3 4 5 4 3 4 4 4 4 4 4
6 5 5 5 5 5 4 4 4 3 3 4 4 3 3 4 3 5 5 2 2 5 7 7 5 5 6 5 5 4 3 3 4 4 3 3 3 3 3 4 4 4 5
7 6 5 4 4 4 4 4 7 7 7 7 7 4 2 6 8 10 10 11 10 11 6 4 4 4 4 4 4 4 3 4 4 3 2 2 4 4 3 4 4 5 5
8 7 5 5 4 4 4 5 5 7 8 8 9 10 10 8 9 9 10 11 12 11 4 3 4 4 5 5 4 4 4 3 3 2 2 3 3 3 3 4 4 5 5
7 8 6 5 4 4 5 5 5 5 4 3 7 8 9 10 9 9 10 10 7 6 3 5 5 5 5 5 5 5 4 4 4 3 4 3 3 3 3 4 4 3 3
7 6 6 5 5 5 5 4 4 3 4 4 4 7 9 10 10 10 10 3 3 4 4 4 4 4 4 4 4 4 4 4 4 4 4 3 3 3 4 4 6 9 6
5 7 6 4 4 4 4 4 3 4 4 4 6 6 7 8 6 6 5 2 3 4 4 4 4 3 3 3 3 3 4 4 4 4 3 2 3 3 4 4 5 5 5
4 5 6 3 3 3 3 3 3 3 4 3 5 6 11 4 4 4 3 3 3 3 4 3 3 3 3 3 3 3 3 3 2 2 3 3 3 5 4 4 4 4 5
6 6 5 6 5 3 3 3 3 3 4 4 5 7 12 2 3 3 4 4 5 4 3 3 3 3 3 3 3 3 2 2 2 2 3 3 3 4 3 3 4 4 5
5 3 3 3 3 5 3 3 3 3 4 3 3 5 4 3 3 4 5 6 6 5 5 4 4 5 4 4 3 2 2 2 2 2 3 3 4 6 7 8 6 6 8
3 3 4 4 4 4 5 5 5 7 4 4 4 5 6 7 7 8 8 8 8 8 7 7 6 6 5 5 4 3 3 2 3 4 5 6 8 9 9 10 11 11 12
5 5 5 5 5 6 6 6 6 6 6 7 9 9 9 8 9 9 10 9 9 9 10 10 8 7 7 7 7 7 12 12 7 11 8 9 10 11 12 12 12 12 13
5 6 6 6 6 6 7 7 8 8 9 9 9 9 10 10 10 11 11 11 11 11 12 11 11 10 10 11 11 14 14 14 12 14 11 11 12 13 13 13 14 14 14